Wind_Speed
24 25 27 29 28 26 27 30 29 29 28 33 31 34 39 49 57 68 51 63 56 35 20 48 64 62 57 53 47 48 48 45 41 38 37 37 36 36 35 33 31 27 25
25 26 27 30 30 27 28 29 31 29 29 33 33 35 38 43 44 57 65 49 62 48 48 23 31 66 60 56 55 53 51 49 44 40 39 40 39 38 37 35 32 30 27
22 25 26 27 30 30 31 32 33 35 33 34 36 36 38 47 48 51 63 72 50 64 47 37 30 35 62 60 59 54 52 49 47 46 44 43 40 38 37 36 34 32 29
21 23 24 28 31 33 33 35 37 37 38 36 36 38 37 37 41 43 47 70 64 54 47 44 32 37 41 65 62 57 53 53 52 49 47 42 39 35 35 35 34 33 31
24 26 27 27 30 32 34 35 38 40 41 42 42 42 40 40 40 43 44 55 72 53 45 53 43 32 36 46 70 63 58 56 53 50 47 44 41 38 35 32 31 32 30
24 26 28 29 30 32 35 36 35 38 41 42 43 41 40 38 40 40 41 44 48 73 54 34 46 39 44 45 68 67 61 56 55 51 51 45 39 35 33 31 30 29 28
26 27 28 29 30 32 34 36 38 36 39 40 39 39 38 39 38 38 38 42 45 47 76 45 34 31 47 47 50 71 63 60 57 55 50 46 41 35 32 30 29 29 30
27 30 29 30 32 32 33 32 33 35 36 39 40 40 40 40 39 39 38 39 44 45 69 61 48 35 45 57 46 64 68 63 60 57 55 49 45 41 37 36 34 32 32
31 34 33 31 32 33 33 33 31 31 33 35 38 41 45 44 41 39 41 37 42 45 53 73 61 38 39 35 40 50 68 70 63 59 57 52 48 45 42 39 39 38 35
35 36 36 34 32 34 34 34 33 31 31 32 34 38 42 46 48 44 40 38 39 45 48 59 70 49 36 53 37 40 49 68 68 61 56 54 52 48 46 42 41 38 36
36 39 38 37 34 33 35 34 34 31 30 31 32 34 36 40 43 42 40 39 39 44 49 46 62 68 56 41 43 45 39 52 65 60 59 55 58 52 50 47 48 46 47
39 39 38 37 36 33 34 35 34 33 32 31 32 32 33 37 39 40 40 41 40 43 47 45 51 63 63 54 43 39 36 41 52 60 73 64 56 58 52 48 40 46 51
39 37 36 36 36 35 34 35 35 35 34 33 33 33 32 34 38 39 38 40 41 44 47 50 51 57 59 61 53 47 50 46 44 43 54 67 52 50 45 50 38 44 46
38 35 34 36 38 36 36 36 35 38 38 36 36 36 35 33 36 38 39 40 43 44 48 52 52 59 56 59 63 53 48 43 51 51 51 52 54 52 39 39 38 43 50
33 32 32 36 38 36 36 37 37 38 41 40 39 38 37 35 35 37 40 42 42 43 49 53 55 61 61 59 53 56 51 49 55 54 55 53 48 53 42 39 37 39 43
32 32 33 33 34 35 36 37 39 41 42 42 40 37 37 37 36 37 40 42 42 43 50 54 56 60 69 60 62 54 42 44 42 43 47 52 52 51 46 40 39 42 35
33 31 32 32 33 35 36 37 39 41 41 43 38 36 36 36 36 37 39 41 42 43 50 55 58 64 62 81 62 45 51 47 48 43 52 50 48 55 52 47 42 41 34
34 32 34 34 33 34 36 36 38 40 40 40 37 34 36 36 36 36 39 40 41 44 49 53 59 63 66 77 79 57 52 57 53 56 50 51 49 53 51 45 48 44 40
33 33 35 34 35 36 36 36 36 38 38 37 35 33 34 36 35 35 37 38 40 43 50 48 59 62 70 70 86 78 57 57 54 55 48 49 55 57 54 52 53 44 40
33 35 34 35 37 37 34 35 35 35 35 35 33 32 33 36 34 34 34 35 38 42 48 47 56 58 70 65 70 70 58 46 46 45 52 49 51 51 50 50 50 46 47
34 35 34 36 38 36 34 34 34 35 34 33 32 31 31 34 34 33 33 33 34 40 43 47 53 59 66 69 63 64 71 53 51 53 57 55 51 49 48 49 51 46 42
36 35 35 36 37 34 33 33 34 34 33 32 32 31 31 32 33 33 31 32 32 35 41 46 49 57 72 58 64 60 76 59 49 56 66 54 54 54 56 51 50 47 42
37 35 34 35 33 33 34 33 34 33 32 32 31 31 31 31 33 32 30 31 29 30 36 42 47 57 71 59 68 59 59 55 62 52 63 57 56 55 49 55 49 47 46
36 35 35 31 31 33 33 34 34 33 32 31 30 30 30 31 31 31 30 29 28 29 32 37 40 50 69 68 60 60 55 58 64 62 47 58 52 54 48 53 52 51 52
36 36 32 30 31 31 31 33 35 34 32 31 31 30 30 31 30 29 29 28 28 29 30 35 36 43 71 62 65 68 65 64 63 47 48 63 60 52 52 56 55 49 54
37 34 31 31 31 31 31 33 35 34 32 30 31 30 29 31 30 30 26 26 28 28 29 31 36 37 51 55 65 80 74 64 64 56 59 48 61 52 56 56 57 59 46
Wind_Direction
286 284 282 282 281 278 274 277 273 272 268 273 274 272 270 263 265 244 226 214 222 233 200 195 211 222 219 222 220 223 223 220 220 217 218 220 219 219 219 220 221 221 222
288 284 281 282 281 279 274 273 274 272 271 272 277 278 269 265 267 263 233 217 222 219 223 206 209 211 220 221 222 220 222 222 221 222 218 220 220 221 222 222 223 225 225
295 290 287 282 283 282 276 272 270 273 273 275 278 281 281 270 267 263 261 243 223 218 222 236 239 215 220 220 224 220 221 223 223 221 224 222 223 223 224 225 226 227 228
315 308 298 290 285 282 278 276 275 271 273 273 275 277 279 276 271 270 263 257 236 219 225 223 239 243 231 219 225 225 220 223 222 224 224 224 230 232 229 230 230 231 231
322 316 310 301 292 286 282 278 275 274 272 275 275 275 276 283 277 268 263 257 250 227 215 218 221 238 234 235 221 225 223 223 224 224 228 229 227 227 229 233 235 236 237
321 321 317 313 307 298 286 282 278 277 277 275 273 273 277 284 280 273 263 255 255 251 227 219 224 232 242 229 218 225 227 223 224 224 225 228 235 235 234 235 234 235 236
320 323 319 314 312 307 298 286 280 280 278 279 270 267 271 278 274 271 265 254 248 250 240 216 211 210 231 233 228 223 220 223 222 225 226 224 226 227 231 234 235 236 235
314 320 322 319 318 316 310 298 287 277 276 276 273 264 267 272 274 270 268 259 249 245 251 233 219 234 220 235 241 220 229 225 221 224 225 223 222 225 225 225 229 230 231
310 316 321 320 317 317 314 305 295 288 278 272 270 268 265 267 272 272 264 262 249 241 245 245 226 231 228 232 231 228 227 232 215 225 225 221 221 219 223 225 228 231 232
310 312 317 317 316 314 313 309 300 292 286 278 273 271 267 264 264 267 261 257 249 240 239 241 240 220 235 227 225 244 232 225 224 222 225 220 218 221 222 229 226 232 234
308 308 311 312 311 309 309 307 304 295 293 289 281 276 270 265 260 260 258 253 248 239 234 232 241 241 235 225 221 221 234 225 230 233 235 222 221 219 224 227 231 236 237
304 303 306 307 306 305 304 305 304 301 293 292 288 282 274 266 261 258 256 251 244 239 230 223 228 240 242 227 219 213 229 230 222 225 231 226 232 224 227 231 230 237 232
297 295 300 302 303 301 299 300 301 301 297 292 292 289 281 270 262 256 253 249 245 239 227 219 219 221 235 226 225 225 225 233 231 220 229 220 223 230 227 227 226 231 229
289 288 295 298 300 297 295 296 299 299 298 294 292 290 287 277 266 258 253 250 248 241 229 220 215 215 224 222 220 221 220 215 219 221 220 221 224 223 217 219 220 230 233
279 286 288 296 296 294 292 293 296 296 295 294 293 287 285 283 272 263 254 250 248 243 234 220 214 214 216 222 218 217 217 223 223 233 223 217 219 216 217 222 216 218 222
279 281 287 293 295 292 289 290 292 294 294 295 295 286 279 281 276 266 257 251 246 242 237 224 215 214 215 220 226 213 208 213 211 211 215 211 212 206 218 213 220 225 235
278 277 287 294 295 290 287 288 290 292 293 296 295 286 276 277 276 270 262 253 245 242 236 228 219 213 216 215 222 222 202 213 223 225 215 213 212 212 200 203 208 224 229
273 277 290 292 296 292 288 289 290 291 294 294 293 287 277 274 276 271 263 256 248 240 235 233 219 214 212 215 225 222 210 212 216 214 216 213 208 200 200 204 209 224 229
266 282 290 292 298 293 287 288 290 292 292 291 292 287 278 274 274 272 265 258 251 242 238 236 222 217 208 217 219 228 225 213 211 213 208 220 206 205 212 217 219 221 223
271 284 289 292 295 289 285 288 289 289 290 291 290 287 280 276 275 274 268 258 253 247 239 240 226 222 208 213 211 223 222 209 213 214 210 215 215 214 213 216 222 224 227
273 285 286 289 292 286 286 288 290 290 290 289 288 286 283 278 277 276 271 262 253 250 240 242 227 220 208 206 213 214 221 216 218 211 202 209 205 203 206 208 211 218 225
275 282 285 289 287 283 286 289 290 289 289 289 287 284 282 280 278 278 274 266 257 250 244 245 230 220 210 207 211 212 226 223 218 211 209 213 216 207 205 215 210 215 216
276 281 285 288 283 286 290 290 289 289 289 288 287 285 281 280 280 279 277 270 261 255 247 243 233 220 215 207 201 210 217 227 230 225 211 215 216 221 215 214 214 211 222
276 283 286 282 282 287 289 289 288 290 290 288 286 285 281 277 278 279 280 272 266 255 247 243 238 222 215 209 202 201 210 217 226 231 222 211 213 217 217 214 213 209 215
279 283 281 280 284 287 288 288 288 289 289 287 287 286 284 280 276 276 279 274 266 260 246 242 242 226 208 207 199 199 200 208 211 219 215 212 213 214 214 207 213 217 216
280 278 275 280 283 285 287 286 287 287 287 285 285 285 284 280 277 276 268 274 270 257 248 240 242 229 214 200 203 202 199 206 205 212 220 217 216 216 212 210 212 216 213
Height
3050 3049 3048 3046 3047 3045 3043 3043 3043 3043 3044 3043 3044 3052 3048 3058 3053 3055 3062 3071 3075 3074 3079 3088 3098 3106 3114 3123 3134 3139 3142 3146 3151 3154 3158 3163 3166 3169 3173 3176 3178 3181 3183
3045 3044 3043 3041 3041 3040 3038 3036 3036 3037 3039 3040 3041 3042 3047 3047 3047 3050 3051 3059 3068 3072 3075 3082 3086 3094 3104 3114 3120 3127 3134 3138 3144 3150 3153 3155 3160 3163 3167 3171 3174 3177 3179
3042 3039 3038 3037 3034 3034 3033 3031 3030 3029 3030 3031 3031 3034 3034 3034 3036 3041 3045 3051 3058 3065 3064 3070 3076 3080 3093 3102 3110 3119 3126 3134 3139 3141 3145 3148 3153 3158 3162 3166 3170 3173 3176
3037 3034 3032 3030 3028 3027 3026 3025 3023 3022 3021 3024 3024 3024 3028 3030 3030 3035 3035 3038 3046 3052 3059 3066 3071 3076 3083 3093 3101 3112 3120 3124 3128 3136 3138 3145 3151 3153 3158 3162 3165 3168 3171
3032 3028 3025 3024 3021 3019 3018 3017 3016 3014 3014 3014 3016 3017 3018 3017 3018 3019 3024 3032 3036 3043 3051 3057 3064 3067 3072 3083 3091 3102 3108 3114 3123 3129 3135 3140 3144 3148 3153 3157 3161 3163 3167
3027 3023 3019 3017 3014 3011 3009 3008 3007 3006 3005 3004 3003 3003 3002 3003 3006 3009 3016 3021 3027 3032 3041 3047 3055 3062 3064 3070 3082 3089 3099 3107 3114 3123 3125 3133 3141 3146 3149 3152 3155 3159 3162
3021 3018 3015 3011 3008 3005 3001 2999 2999 2998 2997 2995 2995 2995 2997 2998 3002 3005 3006 3012 3019 3024 3031 3038 3045 3052 3057 3063 3069 3075 3085 3096 3104 3112 3121 3128 3132 3139 3142 3146 3149 3151 3154
3016 3013 3009 3005 3002 2998 2994 2991 2990 2989 2988 2987 2987 2988 2990 2989 2990 2992 2994 2999 3005 3009 3015 3027 3033 3042 3048 3055 3059 3067 3074 3085 3094 3103 3109 3119 3125 3130 3135 3137 3141 3143 3147
3010 3006 3002 2999 2995 2992 2989 2985 2983 2981 2979 2979 2978 2978 2978 2979 2978 2980 2984 2988 2991 2996 3007 3016 3021 3034 3038 3042 3049 3054 3061 3069 3081 3092 3100 3109 3116 3121 3125 3130 3133 3136 3139
3003 2999 2996 2992 2989 2985 2982 2979 2975 2973 2972 2970 2968 2968 2969 2969 2970 2972 2975 2977 2980 2986 2995 3001 3013 3022 3027 3034 3038 3047 3051 3059 3070 3079 3088 3097 3105 3111 3116 3122 3126 3129 3133
2997 2992 2988 2985 2983 2979 2976 2973 2969 2966 2963 2961 2959 2958 2958 2958 2958 2960 2962 2965 2970 2976 2984 2989 3002 3009 3018 3023 3028 3035 3043 3049 3057 3063 3071 3084 3094 3099 3106 3112 3117 3121 3127
2989 2985 2982 2979 2975 2973 2970 2966 2963 2959 2956 2953 2951 2949 2948 2947 2948 2950 2951 2955 2960 2964 2972 2980 2988 3000 3007 3013 3018 3024 3032 3040 3046 3055 3064 3071 3078 3086 3092 3099 3105 3111 3118
2981 2977 2975 2971 2969 2965 2963 2960 2956 2952 2949 2946 2943 2940 2938 2938 2938 2940 2942 2944 2948 2954 2960 2968 2977 2987 2998 3002 3009 3016 3020 3030 3036 3044 3050 3061 3070 3073 3082 3091 3095 3103 3108
2970 2969 2967 2963 2959 2956 2954 2952 2949 2944 2940 2937 2934 2931 2928 2928 2927 2928 2930 2933 2936 2941 2947 2954 2961 2972 2984 2993 2999 3007 3011 3017 3029 3036 3041 3050 3060 3067 3074 3080 3087 3093 3099
2962 2960 2958 2955 2950 2947 2945 2942 2939 2936 2931 2928 2925 2922 2919 2917 2917 2917 2918 2920 2924 2927 2932 2939 2944 2957 2968 2981 2986 2997 3002 3009 3016 3024 3032 3041 3050 3058 3066 3072 3077 3084 3088
2953 2950 2949 2946 2942 2939 2936 2934 2930 2926 2921 2918 2914 2911 2909 2907 2906 2906 2906 2909 2912 2916 2920 2923 2929 2941 2953 2971 2976 2986 2992 2997 3005 3013 3022 3032 3041 3049 3058 3064 3069 3076 3080
2943 2941 2939 2937 2933 2929 2927 2924 2921 2916 2913 2908 2904 2901 2899 2897 2896 2896 2895 2896 2900 2903 2905 2912 2919 2930 2939 2957 2961 2971 2979 2988 2997 3005 3013 3020 3029 3038 3047 3055 3061 3067 3072
2933 2932 2930 2927 2924 2920 2916 2914 2911 2907 2903 2898 2895 2891 2888 2887 2886 2885 2885 2884 2888 2893 2897 2900 2906 2911 2923 2938 2952 2959 2969 2979 2987 2994 3003 3010 3020 3029 3038 3046 3053 3059 3064
2923 2922 2920 2917 2913 2910 2907 2904 2901 2897 2893 2889 2885 2882 2879 2877 2876 2874 2874 2874 2875 2879 2883 2886 2891 2897 2912 2924 2935 2948 2958 2967 2976 2983 2992 3001 3009 3020 3028 3036 3045 3051 3057
2915 2912 2909 2907 2904 2900 2898 2894 2891 2887 2884 2881 2877 2874 2870 2867 2866 2865 2864 2864 2863 2866 2871 2875 2880 2888 2900 2910 2919 2933 2945 2954 2964 2972 2982 2994 3001 3009 3017 3026 3035 3042 3051
2904 2903 2899 2896 2893 2890 2888 2885 2881 2877 2875 2872 2869 2865 2862 2859 2857 2855 2854 2853 2853 2856 2861 2866 2870 2876 2886 2895 2904 2916 2931 2942 2954 2962 2972 2985 2994 3001 3010 3019 3027 3038 3046
2893 2891 2889 2885 2881 2879 2878 2875 2871 2868 2866 2863 2859 2856 2854 2851 2848 2846 2845 2844 2842 2842 2844 2849 2853 2859 2869 2878 2892 2902 2922 2931 2940 2952 2964 2976 2984 2993 3002 3010 3022 3030 3035
2882 2880 2877 2874 2870 2867 2866 2864 2861 2858 2856 2853 2851 2847 2845 2842 2839 2837 2836 2834 2833 2832 2834 2835 2840 2847 2854 2867 2879 2891 2907 2917 2933 2945 2955 2967 2976 2985 2992 3002 3010 3018 3025
2870 2868 2865 2863 2861 2858 2855 2853 2850 2848 2846 2844 2841 2839 2836 2833 2832 2828 2827 2826 2824 2824 2826 2828 2830 2836 2842 2855 2867 2883 2896 2908 2921 2933 2942 2953 2964 2973 2980 2990 2997 3006 3014
2858 2856 2854 2852 2851 2848 2846 2842 2840 2838 2837 2834 2832 2829 2826 2824 2823 2821 2818 2817 2816 2814 2816 2818 2819 2825 2831 2841 2850 2864 2877 2895 2910 2920 2929 2938 2947 2956 2966 2976 2986 2994 3002
2847 2844 2843 2842 2840 2838 2837 2833 2830 2829 2827 2825 2823 2820 2817 2815 2813 2811 2812 2809 2807 2807 2807 2809 2810 2815 2820 2826 2838 2850 2864 2878 2893 2907 2917 2923 2935 2945 2956 2964 2974 2985 2994